This demonstration page uses our WeatherBlox Daily Observations layout. Learn more.

Left ArrowRight Arrow

44.31136, -96.79839

Hourly Observations for September 21, 2021

Temp ( °F °C ) Dew Point ( °F °C ) Humidity (%) Winds ( mph kmh ) Pressure ( in mb ) Visibility ( mi km ) Precip ( " mm )
12:56 am 00:56 Clear 46 7.8 46 7.8 100 100 W 3 6 30.15 1021 10 16 0.00 0.00
1:18 am 01:18 Clear with Mist and Fog 45 7 45 7 100 100 NW 3 6 30.13 1020 2 3 0.00 0.00
1:28 am 01:28 Clear with Mist and Fog 45 7 45 7 100 100 Calm 30.13 1020 3 5 0.00 0.00
1:56 am 01:56 Clear 47 8.3 46 7.8 97 97 Calm 30.16 1022 10 16 0.00 0.00
2:56 am 02:56 Clear 47 8.3 46 7.8 97 97 Calm 30.18 1022 10 16 0.00 0.00
3:56 am 03:56 Clear with Mist and Fog 45 7.2 44 6.7 97 97 W 5 7 30.19 1022 2 3 0.00 0.00
3:59 am 03:59 Clear with Mist and Fog 45 7 45 7 100 100 WNW 5 7 30.16 1021 1 2 0.00 0.00
4:03 am 04:03 Clear with Fog 45 7 43 6 93 93 WNW 5 7 30.17 1022 1 1 0.00 0.00
4:10 am 04:10 Mostly Cloudy with Fog 43 6 43 6 100 100 NW 6 9 30.18 1022 1 1 0.00 0.00
4:16 am 04:16 Mostly Cloudy with Mist and Fog 45 7 43 6 93 93 NW 8 13 30.17 1022 1 2 0.00 0.00
4:19 am 04:19 Mostly Clear with Mist and Fog 45 7 45 7 100 100 WNW 9 15 30.17 1022 3 4 0.00 0.00
4:26 am 04:26 Mostly Clear 45 7 45 7 100 100 undefined N/A 30.17 1022 10 16 0.00 0.00
4:56 am 04:56 Clear 45 7.2 44 6.7 97 97 NW 8 13 30.21 1023 10 16 0.00 0.00
5:56 am 05:56 Clear 43 6.1 41 5 93 93 WNW 8 13 30.24 1024 10 16 0.00 0.00
6:56 am 06:56 Clear 44 6.7 41 5 89 89 NW 9 15 30.27 1025 10 16 0.00 0.00
7:56 am 07:56 Sunny 45 7.2 43 6.1 93 93 NW 8 13 30.30 1026 10 16 0.00 0.00
8:56 am 08:56 Sunny 48 8.9 45 7.2 89 89 WNW 6 9 30.33 1027 10 16 0.00 0.00
9:49 am 09:49 Hazy 54 12 48 9 82 82 NW 14 22 30.30 1026 2 3 0.00 0.00
9:56 am 09:56 Hazy 54 12.2 48 8.9 80 80 NNW 10 17 30.36 1028 2 3 0.00 0.00
10:04 am 10:04 Sunny 55 13 48 9 77 77 NW 12 19 30.30 1026 10 16 0.00 0.00
10:56 am 10:56 Sunny 58 14.4 48 8.9 70 70 NNW 9 15 30.39 1029 10 16 0.00 0.00
11:56 am 11:56 Sunny 60 15.6 45 7.2 58 58 NW 14 22 30.38 1029 10 16 0.00 0.00
12:56 pm 12:56 Mostly Cloudy 62 16.7 44 6.7 52 52 NNW 14 22 30.37 1029 10 16 0.00 0.00
1:56 pm 13:56 Mostly Cloudy 62 16.7 41 5 46 46 NNW 15 24 30.37 1028 10 16 0.00 0.00
2:56 pm 14:56 Mostly Cloudy 63 17.2 41 5 45 45 WNW 10 17 30.36 1028 10 16 0.00 0.00
3:56 pm 15:56 Sunny 64 17.8 39 3.9 40 40 NW 14 22 30.35 1028 10 16 0.00 0.00
4:56 pm 16:56 Sunny 63 17.2 40 4.4 43 43 NW 15 24 30.36 1028 10 16 0.00 0.00
5:56 pm 17:56 Hazy 62 16.7 40 4.4 44 44 NNW 15 24 30.37 1029 3 4 0.00 0.00
6:03 pm 18:03 Hazy 63 17 39 4 42 42 NNW 13 20 30.29 1026 2 3 0.00 0.00
6:05 pm 18:05 Hazy 63 17 41 5 45 45 NNW 14 22 30.29 1026 4 6 0.00 0.00
6:33 pm 18:33 Hazy 61 16 39 4 45 45 NW 10 17 30.30 1026 1 2 0.00 0.00
6:43 pm 18:43 Sunny 61 16 39 4 45 45 NW 10 17 30.30 1026 10 16 0.00 0.00
6:56 pm 18:56 Sunny 59 15 40 4.4 49 49 NNW 8 13 30.39 1029 10 16 0.00 0.00
7:56 pm 19:56 Clear 53 11.7 40 4.4 61 61 NNW 5 7 30.41 1030 10 16 0.00 0.00
8:56 pm 20:56 Clear 53 11.7 39 3.9 59 59 Calm 30.41 1030 10 16 0.00 0.00
9:56 pm 21:56 Clear 49 9.4 40 4.4 71 71 Calm 30.42 1030 10 16 0.00 0.00
10:56 pm 22:56 Clear 47 8.3 40 4.4 77 77 SSW 3 6 30.42 1030 10 16 0.00 0.00
11:56 pm 23:56 Clear 46 7.8 41 5 83 83 Calm 30.42 1030 10 16 0.00 0.00

Powered by AerisWeather